| time (UTC) | temp C | wind direction | speed KPH | gust KPH | rain 1hr cm | rain 24hr cm | rain mn cm | humidity % | barometer mb |
| 20260509054533 | 8 | 180 | 0.0 | 0.0 | 0.05 | 0.33 | 0.30 | 91 | 1011.6 |
| 20260509053048 | 8 | 180 | 0.0 | 1.6 | 0.10 | 0.30 | 0.28 | 91 | 1011.8 |
| 20260509051533 | 8 | 180 | 0.0 | 0.0 | 0.15 | 0.30 | 0.28 | 91 | 1011.9 |
| 20260509050035 | 8 | 180 | 0.0 | 8.0 | 0.18 | 0.30 | 0.28 | 91 | 1011.9 |
| 20260509044534 | 8 | 183 | 0.0 | 6.4 | 0.18 | 0.28 | 0.25 | 90 | 1011.9 |
| 20260509043031 | 8 | 223 | 0.0 | 4.8 | 0.13 | 0.23 | 0.20 | 90 | 1012.2 |
| 20260509041540 | 8 | 226 | 0.0 | 0.0 | 0.05 | 0.15 | 0.13 | 90 | 1012.2 |
| 20260509040032 | 8 | 226 | 0.0 | 0.0 | 0.05 | 0.13 | 0.10 | 89 | 1011.8 |
| 20260509034531 | 8 | 226 | 0.0 | 0.0 | 0.05 | 0.10 | 0.08 | 89 | 1011.9 |
| 20260509033030 | 8 | 226 | 0.0 | 0.0 | 0.05 | 0.10 | 0.08 | 89 | 1011.9 |
| 20260509031531 | 8 | 226 | 0.0 | 1.6 | 0.05 | 0.10 | 0.08 | 88 | 1012.1 |
| 20260509030031 | 8 | 228 | 1.6 | 6.4 | 0.05 | 0.13 | 0.08 | 87 | 1012.2 |
| 20260509024530 | 8 | 222 | 0.0 | 9.7 | 0.03 | 0.10 | 0.05 | 86 | 1012.2 |
| 20260509023029 | 8 | 221 | 0.0 | 6.4 | 0.00 | 0.08 | 0.03 | 86 | 1012.2 |
| 20260509021529 | 9 | 229 | 0.0 | 11.3 | 0.00 | 0.08 | 0.03 | 85 | 1012.1 |
| 20260509020029 | 9 | 165 | 0.0 | 6.4 | 0.00 | 0.28 | 0.03 | 85 | 1012.0 |
| 20260509014527 | 9 | 198 | 1.6 | 9.7 | 0.00 | 0.28 | 0.03 | 85 | 1011.8 |
| 20260509013029 | 9 | 144 | 0.0 | 6.4 | 0.00 | 0.28 | 0.03 | 84 | 1011.5 |
| 20260509011530 | 10 | 138 | 0.0 | 12.9 | 0.00 | 0.28 | 0.03 | 81 | 1011.3 |
| 20260509010039 | 10 | 85 | 0.0 | 3.2 | 0.00 | 0.28 | 0.03 | 79 | 1011.2 |
| 20260509004529 | 10 | 80 | 0.0 | 0.0 | 0.00 | 0.28 | 0.03 | 79 | 1011.0 |
| 20260509003026 | 10 | 80 | 0.0 | 0.0 | 0.00 | 0.28 | 0.03 | 79 | 1010.8 |
| 20260509001526 | 10 | 80 | 0.0 | 1.6 | 0.03 | 0.28 | 0.03 | 80 | 1010.6 |
| 20260509000025 | 10 | 80 | 0.0 | 4.8 | 0.03 | 0.28 | 0.03 | 81 | 1010.7 |
| 20260508234526 | 10 | 131 | 0.0 | 4.8 | 0.03 | 0.28 | 0.03 | 80 | 1010.4 |
| 20260508233026 | 10 | 143 | 0.0 | 4.8 | 0.03 | 0.28 | 0.03 | 77 | 1010.2 |
| 20260508231525 | 12 | 175 | 0.0 | 8.0 | 0.00 | 0.25 | 0.00 | 67 | 1010.2 |
| 20260508230036 | 13 | 110 | 1.6 | 9.7 | 0.00 | 0.25 | 0.00 | 55 | 1010.0 |
| 20260508224534 | 13 | 281 | 0.0 | 1.6 | 0.00 | 0.25 | 0.00 | 50 | 1009.7 |
| 20260508223022 | 14 | 282 | 0.0 | 0.0 | 0.00 | 0.25 | 0.00 | 53 | 1009.8 |
| 20260508221537 | 13 | 282 | 0.0 | 1.6 | 0.00 | 0.25 | 0.00 | 50 | 1009.9 |
| 20260508220021 | 13 | 281 | 0.0 | 3.2 | 0.00 | 0.25 | 0.00 | 51 | 1009.8 |
| 20260508214521 | 13 | 162 | 0.0 | 3.2 | 0.00 | 0.25 | 0.00 | 51 | 1010.1 |
| 20260508213024 | 13 | 160 | 0.0 | 3.2 | 0.00 | 0.25 | 0.00 | 52 | 1009.9 |
| 20260508211519 | 13 | 153 | 0.0 | 4.8 | 0.00 | 0.25 | 0.00 | 52 | 1010.0 |
| 20260508210020 | 13 | 277 | 0.0 | 3.2 | 0.00 | 0.25 | 0.00 | 49 | 1010.0 |
| 20260508204520 | 14 | 299 | 1.6 | 14.5 | 0.00 | 0.25 | 0.00 | 48 | 1010.0 |
| 20260508203016 | 15 | 348 | 0.0 | 8.0 | 0.00 | 0.25 | 0.00 | 50 | 1010.3 |
| 20260508201514 | 13 | 281 | 6.4 | 14.5 | 0.00 | 0.25 | 0.00 | 50 | 1010.4 |
| 20260508200013 | 13 | 213 | 4.8 | 32.2 | 0.00 | 0.25 | 0.00 | 50 | 1010.5 |
| 20260508194513 | 13 | 299 | 8.0 | 19.3 | 0.00 | 0.25 | 0.00 | 48 | 1010.6 |
| 20260508193009 | 13 | 284 | 1.6 | 19.3 | 0.00 | 0.25 | 0.00 | 54 | 1010.9 |
| 20260508191509 | 12 | 320 | 14.5 | 27.4 | 0.00 | 0.25 | 0.00 | 53 | 1011.0 |
| 20260508190008 | 13 | 289 | 9.7 | 19.3 | 0.00 | 0.25 | 0.00 | 53 | 1011.2 |
| 20260508184504 | 12 | 9 | 0.0 | 14.5 | 0.00 | 0.25 | 0.00 | 54 | 1011.5 |
| 20260508183004 | 11 | 17 | 1.6 | 17.7 | 0.00 | 0.25 | 0.00 | 61 | 1011.8 |
| 20260508181511 | 12 | 16 | 0.0 | 14.5 | 0.00 | 0.25 | 0.00 | 55 | 1011.5 |
| 20260508180001 | 12 | 355 | 0.0 | 4.8 | 0.00 | 0.25 | 0.00 | 60 | 1011.8 |
| 20260508174558 | 11 | 355 | 0.0 | 4.8 | 0.00 | 0.25 | 0.00 | 62 | 1012.0 |
| 20260508173056 | 10 | 355 | 0.0 | 4.8 | 0.00 | 0.25 | 0.00 | 65 | 1012.0 |
| 20260508171605 | 10 | 348 | 0.0 | 14.5 | 0.00 | 0.25 | 0.00 | 65 | 1012.3 |
| 20260508170059 | 10 | 337 | 3.2 | 17.7 | 0.00 | 0.25 | 0.00 | 65 | 1012.3 |
| 20260508164555 | 10 | 342 | 8.0 | 19.3 | 0.00 | 0.25 | 0.00 | 62 | 1012.3 |
| 20260508163050 | 10 | 302 | 1.6 | 12.9 | 0.00 | 0.25 | 0.00 | 68 | 1012.4 |
| 20260508161547 | 8 | 329 | 6.4 | 12.9 | 0.00 | 0.25 | 0.00 | 72 | 1012.8 |
| 20260508160048 | 8 | 312 | 11.3 | 17.7 | 0.00 | 0.25 | 0.00 | 69 | 1012.9 |
| 20260508154545 | 8 | 299 | 8.0 | 16.1 | 0.00 | 0.25 | 0.00 | 71 | 1012.8 |
| 20260508153044 | 8 | 317 | 12.9 | 22.5 | 0.00 | 0.25 | 0.00 | 69 | 1012.4 |
| 20260508151545 | 8 | 308 | 9.7 | 22.5 | 0.00 | 0.25 | 0.00 | 72 | 1012.4 |
| 20260508150044 | 7 | 292 | 1.6 | 17.7 | 0.00 | 0.25 | 0.00 | 76 | 1012.5 |
| 20260508144543 | 7 | 298 | 9.7 | 22.5 | 0.00 | 0.25 | 0.00 | 76 | 1012.4 |
| 20260508143043 | 8 | 315 | 1.6 | 14.5 | 0.00 | 0.25 | 0.00 | 74 | 1012.1 |
| 20260508141542 | 8 | 322 | 0.0 | 22.5 | 0.00 | 0.25 | 0.00 | 73 | 1011.9 |
| 20260508140041 | 8 | 284 | 9.7 | 17.7 | 0.00 | 0.25 | 0.00 | 74 | 1012.0 |
| 20260508134540 | 8 | 294 | 1.6 | 8.0 | 0.00 | 0.25 | 0.00 | 78 | 1012.1 |
| 20260508133037 | 7 | 144 | 0.0 | 8.0 | 0.00 | 0.25 | 0.00 | 82 | 1012.1 |
| 20260508131535 | 6 | 138 | 1.6 | 12.9 | 0.00 | 0.25 | 0.00 | 84 | 1012.1 |
| 20260508130044 | 6 | 194 | 0.0 | 6.4 | 0.00 | 0.25 | 0.00 | 91 | 1012.4 |
| 20260508124533 | 5 | 181 | 0.0 | 4.8 | 0.00 | 0.25 | 0.00 | 92 | 1012.2 |
| 20260508123027 | 3 | 177 | 0.0 | 4.8 | 0.00 | 0.25 | 0.00 | 93 | 1012.1 |
| 20260508121523 | 2 | 292 | 0.0 | 0.0 | 0.00 | 0.25 | 0.00 | 93 | 1012.1 |
| 20260508120021 | 1 | 292 | 0.0 | 0.0 | 0.00 | 0.28 | 0.00 | 92 | 1012.2 |
| 20260508114519 | 1 | 292 | 0.0 | 0.0 | 0.00 | 0.28 | 0.00 | 92 | 1012.4 |
| 20260508113019 | 1 | 292 | 0.0 | 0.0 | 0.00 | 0.28 | 0.00 | 92 | 1012.5 |
| 20260508111617 | 1 | 292 | 0.0 | 0.0 | 0.00 | 0.28 | 0.00 | 92 | 1012.4 |
| 20260508110015 | 1 | 292 | 0.0 | 0.0 | 0.00 | 0.28 | 0.00 | 92 | 1012.3 |
| 20260508104518 | 0 | 292 | 0.0 | 0.0 | 0.00 | 0.28 | 0.00 | 91 | 1012.1 |
| 20260508103014 | 1 | 292 | 0.0 | 0.0 | 0.00 | 0.28 | 0.00 | 90 | 1012.0 |
| 20260508101510 | 1 | 292 | 0.0 | 0.0 | 0.00 | 0.28 | 0.00 | 89 | 1012.1 |
| 20260508100013 | 1 | 292 | 0.0 | 0.0 | 0.00 | 0.28 | 0.00 | 91 | 1012.0 |
| 20260508094506 | 1 | 292 | 0.0 | 0.0 | 0.03 | 0.28 | 0.00 | 91 | 1012.0 |
| 20260508093006 | 2 | 292 | 0.0 | 0.0 | 0.03 | 0.28 | 0.00 | 92 | 1012.0 |
| 20260508091503 | 1 | 292 | 0.0 | 0.0 | 0.03 | 0.28 | 0.00 | 91 | 1012.0 |
| 20260508090002 | 2 | 292 | 0.0 | 0.0 | 0.03 | 0.28 | 0.28 | 91 | 1012.1 |
| 20260508084502 | 2 | 292 | 0.0 | 0.0 | 0.00 | 0.25 | 0.25 | 91 | 1012.1 |
| 20260508083001 | 2 | 292 | 0.0 | 0.0 | 0.00 | 0.25 | 0.25 | 92 | 1012.1 |
| 20260508081501 | 2 | 292 | 0.0 | 0.0 | 0.00 | 0.25 | 0.25 | 91 | 1012.1 |
| 20260508080110 | 2 | 292 | 0.0 | 0.0 | 0.00 | 0.25 | 0.25 | 91 | 1012.0 |
| 20260508074600 | 2 | 292 | 0.0 | 0.0 | 0.00 | 0.25 | 0.25 | 91 | 1012.1 |
| 20260508073100 | 2 | 292 | 0.0 | 0.0 | 0.00 | 0.25 | 0.25 | 91 | 1012.1 |
| 20260508071603 | 2 | 292 | 0.0 | 0.0 | 0.00 | 0.25 | 0.25 | 91 | 1011.9 |
| 20260508070142 | 2 | 292 | 0.0 | 0.0 | 0.00 | 0.25 | 0.25 | 91 | 1011.9 |
| 20260508064613 | 2 | 292 | 0.0 | 0.0 | 0.00 | 0.25 | 0.25 | 91 | 1012.1 |
| 20260508063101 | 2 | 292 | 0.0 | 0.0 | 0.00 | 0.25 | 0.25 | 91 | 1012.1 |
| 20260508061605 | 3 | 292 | 0.0 | 0.0 | 0.00 | 0.25 | 0.25 | 90 | 1012.3 |
| 20260508060058 | 3 | 292 | 0.0 | 0.0 | 0.00 | 0.25 | 0.25 | 90 | 1012.2 |